CZ-6A DEB, 61479

Orbit data source: Space-Track

CZ-6A DEB, 61479 is space debris in LEO originally from a launch on Tue, 06 Aug 2024 UTC launched from the Taiyaun Space Center, China (TSC). Debris objects in space refer to the collection of defunct objects orbiting the Earth. Examples of debris include non-operational satellites, rocket bodies, and fragments generated from explosions, collisions, or faulty payload assembly.

Loading next visibility...
Identifier
61479, 2024-140AAM
Orbit
LEO
Country
Flag of CNCN / PRC
Related business
Manufacturer
SAST
Mission
Spacecraft
Bus & Motor
Unknown
Mass
Unknown
Launch date (UTC)
2024-08-06 (1 year ago)
Launch vehicle
Unknown
Launch site
Taiyaun Space Center, China (TSC)
Object type
Payload
Rocket body
Debris
Shape & HBR
Unknown
Radar Cross Section
Small (<0.1 m²)

Expand to show TLE details & history
Last TLE update: 1 day ago

TLE from 1 day ago
0 CZ-6A DEB
1 61479U 24140AAM 25260.57074096  .00000557  00000-0  31221-3 0  9990
2 61479  89.0663 309.7416 0161827 344.6658  14.9648 14.03047228 54970
Epoch: 2025-09-17T13:41Z
TLE epoch observation values (Epoch: 2025-09-17T13:41:52.018Z)
Latitude
-0.00007°
Longitude
107.53007°
Altitude
772.875 km
Speed
7.526 km/s
True Right ascension
20h 38m 57s
True Declination
0° 00' 00"
Sunlit
Object was in full shadow at epoch
Visualization orbit readout
Latitude
Unknown
Longitude
Unknown
Altitude
Unknown
Speed
Unknown
Apparent Right ascension
Unknown
Apparent Declination
Unknown
Sunlit
N/A
Visualization observer readout
Local Sidereal Time
13:00:26
Azimuth
Unknown
Elevation
Unknown
Doppler factor
Unknown
Orbital elements
Apogee altitude
997.696 km
Perigee altitude
762.776 km
Semi-major axis
7,258.373 km
Eccentricity
0.01618
Inclination
89.0663°
RAAN
309.7416°
Arg. of periapsis
344.6658°
True anomaly
15.45318°
Mean anomaly
14.9648°
Eccentric anomaly
15.20803°
Mean motion
3.50981 °/min
Orbital period
102.57 mins
BSTAR
0.00031221
Loading maneuver chart data...
Computing Atmospheric mass density...
Loading historical data...
Loading historical data...
Loading historical data...
Loading historical data...
Loading historical data...
Loading historical data...
Loading historical data...

Documentation

Showing up to 5 results
|